Regional Weather Roundup
Issued by NWS Binghamton, NY

Home | Current Version | Previous Version | Text Only | Print | Product List | Glossary On
Versions: 1 2 3 4 5 6 7 8 9 10 11 12 13 14 15 16 17 18 19 20 21 22 23 24 25 26 27 28 29 30 31 32 33 34 35 36 37 38 39 40 41 42 43 44 45 46 47 48 49 50
000
ASUS41 KBGM 010710
RWRBGM
RWRBGM
BINGHAMTON REGIONAL WEATHER ROUNDUP
NATIONAL WEATHER SERVICE BINGHAMTON NY
200 AM EST SUN MAR 01 2015

Note: "fair" indicates few or no clouds below 12,000 feet with no
significant weather and/or obstructions to visibility.

* = Station(s) that does not report precipitation, such as rain,
snow, etc, also no thunder or fog.

!NYZ009-015>018-022>025-036-037-044>046-055>057-062-010800
...CENTRAL NEW YORK...

CITY           SKY/WX    TMP DP  RH WIND       PRES   REMARKS
BINGHAMTON     MOCLDY    10  -3  55 SE5       30.54F WCI   2
CORTLAND       FAIR       1  -4  78 CALM      30.60F
DANSVILLE      MOCLDY    10  -1  61 SE8       30.55F WCI  -2
ELMIRA         MOCLDY     4  -3  73 CALM      30.59F
ITHACA         PTCLDY     8  -5  55 E6        30.58F WCI  -2
MONTICELLO     PTCLDY     5  -2  72 CALM      30.61S
NORWICH        CLEAR     -6  -9  84 CALM      30.64F
ONEONTA        CLEAR      3  -6  66 CALM      30.56F
PENN YAN       MOCLDY     6  -1  73 SW3       30.56F
ROME           MOCLDY    -4  -8  83 SE5       30.69S WCI -15
SIDNEY         CLEAR     -2  -6  84 CALM      30.65F
SYRACUSE       PTCLDY    -1  -4  86 E6        30.63F WCI -13
$$

!PAZ038>040-043-044-047-048-072-010800
...NORTHEAST PENNSYLVANIA...

CITY           SKY/WX    TMP DP  RH WIND       PRES   REMARKS
HAZLETON       PTCLDY     5   1  85 MISG      30.60F
SCRANTON       CLEAR     10  -3  55 E7        30.63S WCI  -1
TOWANDA*       CLEAR      7   0  72 CALM      30.64F
$$
&&
KEY
WCI = WIND CHILL INDEX
VSB = VISIBILITY
HX  = HEAT INDEX
$$


USA.gov is the U.S. government's official web portal to all federal, state and local government web resources and services.